Погода в Тебингтинги

Индонезия     3°20′36″N   99°09′42″E
темп.,
°C
ветер,
м/с
пор.,
м/с
влажн.,
%
обл.,
%
осадки,
мм/ч
давл.,
гПа
погр.,
м
2 марта, вт
вт201:00+24зсз129244 0.1 101247
04:00+23з129624 0.0 101033
07:00+23з119511 0.0 101250
10:00+32сз11572 0.0 1013985
13:00+32ссв225326 0.1 10111396
16:00+32ссв225644 0.9 10081287
19:00+25ссв128526 1.2 100929
22:00+24з11934 0.6 101124
3 марта, ср
ср301:00+23з129632 1.3 101139
04:00+23ююз019891 3.8 101024
07:00+23ююз129691 4.9 101162
10:00+28юв127623 1.9 1013423
13:00+30ююв236661 3.9 1011900
16:00+31вюв1259100 1.4 10081262
19:00+25св118699 1.8 100924
22:00+24юз12880 0.0 101224
4 марта, чт
чт401:00+23зюз01920 0.0 101124
04:00+23юв11940 0.0 101023
07:00+22ю12920 0.0 101278
10:00+30юв25606 0.0 1013856
13:00+34вюв234710 0.0 10101772
16:00+32всв235476 0.0 10071594
19:00+26всв137645 0.1 101091
22:00+25ююз128114 0.0 101136
5 марта, пт
пт501:00+24ююв008232 0.0 101124
04:00+23ююз128633 0.0 100925
07:00+23ю118517 0.0 101142
10:00+31юв35590 0.0 10131095
13:00+35вюв23452 0.0 10101807
16:00+32всв335985 0.0 10081002
19:00+27всв128177 0.3 100954
22:00+25юз119176 0.5 101124
6 марта, сб
сб601:00+24ююз019388 0.6 101124
04:00+23юз119485 0.1 100923
07:00+24ююз119290 0.1 101138
10:00+31ю115784 0.0 1013813
13:00+36ссз114192 0.0 10111666
16:00+32ссв3353100 0.0 10081172
19:00+27ссз1278100 0.1 101037
22:00+25зсз1287100 0.1 101289